(145142) = 1998 UA50 = 2005 GX168

Discovered at Kitt Peak on 2005-04-12 by Spacewatch.

Orbit

Orbit type: Main Belt

Note: WebGL enabled browser required.

epoch2023-09-13.0
epoch JD2460200.5
perihelion date2021-11-18.08928
perihelion JD2459536.58928
argument of perihelion (°)50.39357
ascending node (°)186.07055
inclination (°)1.29979
eccentricity0.1180006
perihelion distance (AU)2.2561259
Tisserand w.r.t. Jupiter3.4
ΔV w.r.t. Earth (km/sec)9.4
semimajor axis (AU)2.5579677
mean anomaly (°)159.94510
mean daily motion (°/day)0.24091360
aphelion distance (AU)2.860
period (years)4.09
P-vector [x]-0.55247997
P-vector [y]-0.77152896
P-vector [z]-0.31545040
Q-vector [x]0.83352273
Q-vector [y]-0.51247387
Q-vector [z]-0.20642286
absolute magnitude16.27
phase slope0.15
uncertainty0
referenceMPEC 2023-Y63
observations used735
oppositions17
arc length (days)9208
first opposition used1998
last opposition used2023
residual rms (arc-secs)0.67
perturbers coarse indicatorM-v
perturbers precise indicator003Ek
first observation date used1998-10-01.0
last observation date used2023-12-17.0
computer nameMPCLINUX
JD of orbit computation2456966.715617
perihelion JD uncertainty (days)8.7576E-05
argument of perihelion uncertainty (°)1.4201E-04
ascending node uncertainty (°)1.4022E-04
inclination uncertainty (°)5.1760E-06
eccentricity uncertainty 3.8230E-08
perihelion distance uncertainty (AU)9.6403E-08
Minimum Orbit Intersection Distances (in AU)
for orbit epoch: 2460200.5, reference: E2023-Y63
Mercury1.79493
Venus1.53152
Earth1.24379
Mars0.68102
Jupiter2.12936
Saturn6.22474
Uranus15.9501
Neptune27.0006

Observations

753 total observations over interval: 1998 10 01.23025 – 2023 12 17.254018
These data are available for download (format description).

Date (UT) J2000 RA J2000 Dec Magn Location Ref
1998 10 01.23025 00 33 17.58 +03 29 39.0 19.8 V 691 – Steward Observatory, Kitt Peak-Spacewatch MPS 134924
1998 10 01.25144 00 33 16.45 +03 29 31.6 19.8 V 691 – Steward Observatory, Kitt Peak-Spacewatch MPS 134924
1998 10 01.27225 00 33 15.37 +03 29 24.4 19.8 V 691 – Steward Observatory, Kitt Peak-Spacewatch MPS 134924
1998 10 29.12793 00 12 39.88 +01 04 22.9 20.4 V 691 – Steward Observatory, Kitt Peak-Spacewatch MPC 54920
1998 10 29.14974 00 12 39.15 +01 04 18.6 20.2 V 691 – Steward Observatory, Kitt Peak-Spacewatch MPC 54920
1998 10 29.17125 00 12 38.47 +01 04 13.6 20.4 V 691 – Steward Observatory, Kitt Peak-Spacewatch MPC 54920
2001 04 26.30713 14 57 01.97 -15 26 06.6 18.5 R 699 – Lowell Observatory-LONEOS MPS 134924
2001 04 26.30792 14 57 01.84 -15 26 06.5 18.5 R 699 – Lowell Observatory-LONEOS MPS 134924
2001 04 26.32586 14 57 01.06 -15 26 02.5   699 – Lowell Observatory-LONEOS MPS 134924
2001 04 26.32664 14 57 00.96 -15 26 01.4   699 – Lowell Observatory-LONEOS MPS 134924
2001 04 26.34461 14 57 00.06 -15 25 57.1   699 – Lowell Observatory-LONEOS MPS 134924
2001 04 26.34540 14 56 59.94 -15 25 57.6   699 – Lowell Observatory-LONEOS MPS 134924
2001 04 26.36340 14 56 59.06 -15 25 52.1   699 – Lowell Observatory-LONEOS MPS 134924
2001 04 26.36417 14 56 58.93 -15 25 51.6   699 – Lowell Observatory-LONEOS MPS 134924
2001 05 14.29547 14 41 23.30 -14 05 04.5 19.2 V 691 – Steward Observatory, Kitt Peak-Spacewatch MPS 134924
2001 05 14.31712 14 41 22.17 -14 04 59.1 19.3 V 691 – Steward Observatory, Kitt Peak-Spacewatch MPS 134924
2001 05 14.33915 14 41 21.01 -14 04 53.2 19.3 V 691 – Steward Observatory, Kitt Peak-Spacewatch MPS 134924
2005 04 02.41057 14 10 01.74 -12 20 52.3 18.6 R G96 – Mt. Lemmon Survey MPS 132711
2005 04 02.41587 14 10 01.52 -12 20 50.9 18.5 R G96 – Mt. Lemmon Survey MPS 132711
2005 04 02.42117 14 10 01.30 -12 20 49.6 18.6 R G96 – Mt. Lemmon Survey MPS 132711
2005 04 02.42647 14 10 01.07 -12 20 48.1 17.7 R G96 – Mt. Lemmon Survey MPS 132711
2005 04 12.30839 14 02 44.09 -11 33 53.6 20.1 V 691 – Steward Observatory, Kitt Peak-Spacewatch MPS 132711
2005 04 12.32575 14 02 43.24 -11 33 48.2 19.4 V 691 – Steward Observatory, Kitt Peak-Spacewatch MPS 132711
2005 04 12.32712 14 02 43.17 -11 33 48.1 19.3   704 – Lincoln Laboratory ETS, New Mexico MPS 132711
2005 04 12.34309 14 02 42.34 -11 33 42.7 19.2 V 691 – Steward Observatory, Kitt Peak-Spacewatch MPS 132711
2005 04 12.34905 14 02 41.98 -11 33 41.5 19.3   704 – Lincoln Laboratory ETS, New Mexico MPS 132711
2005 04 12.35910 14 02 41.56 -11 33 38.3 19.2   704 – Lincoln Laboratory ETS, New Mexico MPS 132711
2005 04 12.37024 14 02 41.01 -11 33 34.6 19.2   704 – Lincoln Laboratory ETS, New Mexico MPS 132711
2005 04 17.28626 13 58 34.41 -11 07 30.1 19.0 V 691 – Steward Observatory, Kitt Peak-Spacewatch MPS 132711
2005 04 17.31171 13 58 33.03 -11 07 22.0 19.1 V 691 – Steward Observatory, Kitt Peak-Spacewatch MPS 132711
2005 04 17.33019 13 58 32.03 -11 07 16.2 19.2 V 691 – Steward Observatory, Kitt Peak-Spacewatch MPS 132711
2005 04 18.29165 13 57 42.68 -11 02 04.3 18.1 R 703 – Catalina Sky Survey MPS 132711
2005 04 18.29753 13 57 42.31 -11 02 03.0 18.7 R 703 – Catalina Sky Survey MPS 132711
2005 04 18.30341 13 57 42.04 -11 01 59.9 17.9 R 703 – Catalina Sky Survey MPS 132711
2005 04 18.30928 13 57 41.73 -11 01 58.9 18.4 R 703 – Catalina Sky Survey MPS 132711
2005 05 04.35041 13 44 17.80 -09 37 10.1 19.0 r 568 – Maunakea MPS 133378
2005 05 04.38467 13 44 16.15 -09 37 00.2 19.1 r 568 – Maunakea MPS 133378
2005 05 04.42865 13 44 14.03 -09 36 47.5 18.9 r 568 – Maunakea MPS 133378
2005 05 05.39170 13 43 30.70 -09 32 12.0 19.0 r 568 – Maunakea MPS 133378
2005 05 09.21193 13 40 48.16 -09 14 58.8 18.9 R 699 – Lowell Observatory-LONEOS MPS 134052
2005 05 09.23295 13 40 47.20 -09 14 53.2   699 – Lowell Observatory-LONEOS MPS 134052
2005 05 09.25395 13 40 46.31 -09 14 47.8   699 – Lowell Observatory-LONEOS MPS 134052
2005 05 09.27495 13 40 45.48 -09 14 42.5   699 – Lowell Observatory-LONEOS MPS 134052
2005 05 12.20798 13 38 52.83 -09 02 45.3 19.0 R 699 – Lowell Observatory-LONEOS MPS 134052
2005 05 12.22887 13 38 52.10 -09 02 39.9   699 – Lowell Observatory-LONEOS MPS 134052
2005 05 12.24981 13 38 51.32 -09 02 34.6   699 – Lowell Observatory-LONEOS MPS 134052
2005 05 12.27077 13 38 50.47 -09 02 29.3   699 – Lowell Observatory-LONEOS MPS 134052
2005 06 15.17471 13 33 44.31 -08 27 40.3 20.2 V G96 – Mt. Lemmon Survey MPS 136544
2005 06 15.18418 13 33 44.53 -08 27 41.2 21.6 V G96 – Mt. Lemmon Survey MPS 136544
2005 06 15.19215 13 33 44.64 -08 27 42.0 20.6 V G96 – Mt. Lemmon Survey MPS 136544
2005 06 15.20009 13 33 44.74 -08 27 43.0 19.9 V G96 – Mt. Lemmon Survey MPS 136544
2006 09 19.20418 23 23 59.32 -03 21 11.9 19.5 R 699 – Lowell Observatory-LONEOS MPS 179360
2006 09 19.22271 23 23 58.63 -03 21 18.2 19.5 V 703 – Catalina Sky Survey MPS 179360
2006 09 19.22795 23 23 58.12 -03 21 20.4   699 – Lowell Observatory-LONEOS MPS 179360
2006 09 19.23399 23 23 57.87 -03 21 23.7 19.8 V 703 – Catalina Sky Survey MPS 179360
2006 09 19.24532 23 23 57.33 -03 21 26.2 19.8 V 703 – Catalina Sky Survey MPS 179360
2006 09 19.25170 23 23 56.93 -03 21 29.7   699 – Lowell Observatory-LONEOS MPS 179360
2006 09 19.25662 23 23 56.65 -03 21 32.3 19.6 V 703 – Catalina Sky Survey MPS 179360
2006 09 19.27546 23 23 55.73 -03 21 38.7   699 – Lowell Observatory-LONEOS MPS 179360
2006 09 25.27125 23 19 01.74 -03 56 13.1 19.9 V G96 – Mt. Lemmon Survey MPS 181088
2006 09 25.27788 23 19 01.41 -03 56 15.5 19.9 V G96 – Mt. Lemmon Survey MPS 181088
2006 09 25.28461 23 19 01.09 -03 56 17.8 19.9 V G96 – Mt. Lemmon Survey MPS 181088
2006 09 25.29124 23 19 00.76 -03 56 19.8 19.9 V G96 – Mt. Lemmon Survey MPS 181088
2006 10 16.20809 23 06 16.56 -05 28 28.7 20.3 V G96 – Mt. Lemmon Survey MPS 182968
2006 10 16.21475 23 06 16.38 -05 28 29.9 20.4 V G96 – Mt. Lemmon Survey MPS 182968
2006 10 16.22140 23 06 16.20 -05 28 31.2 20.4 V G96 – Mt. Lemmon Survey MPS 182968
2006 10 16.22807 23 06 16.05 -05 28 32.5 20.7 V G96 – Mt. Lemmon Survey MPS 182968
2006 10 27.15331 23 03 27.32 -05 51 46.6 20.9 V G96 – Mt. Lemmon Survey MPS 185470
2006 10 27.16275 23 03 27.28 -05 51 47.6 20.7 V G96 – Mt. Lemmon Survey MPS 185470
2006 10 27.17235 23 03 27.18 -05 51 47.9 20.0 V G96 – Mt. Lemmon Survey MPS 185470
2006 10 27.18185 23 03 27.10 -05 51 48.4 20.7 V G96 – Mt. Lemmon Survey MPS 185470
2006 11 15.10336 23 05 29.11 -05 47 32.4 21.3 V G96 – Mt. Lemmon Survey MPS 187008
2006 11 15.10996 23 05 29.25 -05 47 31.7 21.2 V G96 – Mt. Lemmon Survey MPS 187008
2006 11 15.11671 23 05 29.36 -05 47 31.3 21.4 V G96 – Mt. Lemmon Survey MPS 187008
2006 11 15.12330 23 05 29.47 -05 47 30.3 21.0 V G96 – Mt. Lemmon Survey MPS 187008
2007 12 19.17279 05 23 41.79 +21 14 20.6 20.1 V 691 – Steward Observatory, Kitt Peak-Spacewatch MPS 232483
2007 12 19.18809 05 23 40.82 +21 14 20.0 20.3 V 691 – Steward Observatory, Kitt Peak-Spacewatch MPS 232483
2007 12 19.20684 05 23 39.71 +21 14 20.5 19.5 V 691 – Steward Observatory, Kitt Peak-Spacewatch MPS 232483
2007 12 28.24553 05 14 39.31 +21 06 04.8   691 – Steward Observatory, Kitt Peak-Spacewatch MPS 232483
2007 12 28.26657 05 14 38.04 +21 06 03.2   691 – Steward Observatory, Kitt Peak-Spacewatch MPS 232483
2007 12 28.28760 05 14 36.88 +21 06 01.9   691 – Steward Observatory, Kitt Peak-Spacewatch MPS 232483
2008 01 08.85282 05 04 54.10 +20 57 13.8 19.7   A77 – Observatoire Chante-Perdrix, Dauban MPS 234050
2008 01 08.87745 05 04 53.07 +20 57 13.4 19.8   A77 – Observatoire Chante-Perdrix, Dauban MPS 234050
2008 01 08.88932 05 04 52.56 +20 57 12.5 20.5   A77 – Observatoire Chante-Perdrix, Dauban MPS 234050
2008 02 27.15804 05 02 53.77 +21 18 58.6 21.4 V G96 – Mt. Lemmon Survey MPS 240493
2008 02 27.16468 05 02 54.02 +21 18 59.5 21.2 V G96 – Mt. Lemmon Survey MPS 240493
2008 02 27.17142 05 02 54.27 +21 18 59.6 20.8 V G96 – Mt. Lemmon Survey MPS 240493
2008 02 27.17814 05 02 54.45 +21 19 00.2 20.9 V G96 – Mt. Lemmon Survey MPS 240493
2008 12 29.53026 12 48 28.65 -05 37 32.8 20.6 V 691 – Steward Observatory, Kitt Peak-Spacewatch MPS 271541
2008 12 29.54331 12 48 29.53 -05 37 38.9 20.9 V 691 – Steward Observatory, Kitt Peak-Spacewatch MPS 271541
